Regional Weather Roundup
Issued by NWS

Home | Current Version | Previous Version | Graphics & Text | Print | Product List | Glossary On
Versions: 1 2 3 4 5 6 7 8 9 10 11 12 13 14 15 16 17 18 19 20 21 22 23 24 25 26 27 28 29 30 31 32 33 34 35 36 37 38 39 40 41 42 43 44 45 46 47 48 49 50
695
ASUS44 KMEG 301910
RWRTN
TENNESSEE HOURLY STATE WEATHER ROUNDUP
NATIONAL WEATHER SERVICE MEMPHIS TN
200 PM CDT SAT JUL 30 2016

TNZ002-004-019-021-049-052-054-088>092-302000-
WEST TENNESSEE

CITY           SKY/WX    TMP DP  RH WIND       PRES   REMARKS
MEMPHIS INTL   PTSUNNY   89  75  63 W8        29.99F HX  99
NWS MEMPHIS      N/A     86 N/A N/A MISG        N/A
JACKSON        PTSUNNY   85  73  67 W8        29.99F HX  91
DYERSBURG      PTSUNNY  N/A N/A N/A MISG        N/A
UNION CITY     MOSUNNY   88  73  62 W5        29.97F HX  96
PARIS          MOSUNNY   82  72  69 VRB5      29.99F
LEXINGTON      SUNNY     84  72  65 W6        29.99S
$$

TNZ008-025-027-028-033-062-065-066-302000-
NORTH MIDDLE TENNESSEE

CITY           SKY/WX    TMP DP  RH WIND       PRES   REMARKS
NASHVILLE      CLOUDY    86  69  56 SW7       30.00F HX  90
CLARKSVILLE    MOSUNNY   85  71  63 W7        29.98F HX  90
SMYRNA         CLOUDY    86  71  60 W7        30.00F HX  91
COOKEVILLE     SUNNY     88  73  62 CALM      30.02F HX  96
CROSSVILLE     PTSUNNY   82  68  62 W8        30.07F
$$

TNZ061-075-076-078-094-096-097-302000-
SOUTH MIDDLE TENNESSEE

CITY           SKY/WX    TMP DP  RH WIND       PRES   REMARKS
FAYETTEVILLE   SUNNY     82  70  65 W3        30.04S
TULLAHOMA      MOSUNNY   86  68  54 W7        30.05R
WINCHESTER     MOSUNNY   86  70  58 W6        30.04R HX  90
MCMINNVILLE    MOSUNNY   86  72  62 W6        30.03S HX  92
COLUMBIA       SUNNY     86  73  66 S6        30.00R HX  93
SHELBYVILLE    SUNNY     86  73  66 W7        30.03S HX  93
$$

TNZ017-018-042-046-047-302000-
NORTHEAST TENNESSEE

CITY           SKY/WX    TMP DP  RH WIND       PRES   REMARKS
TRI CITIES     PTSUNNY   83  69  62 W6        30.05F
ELIZABETHTON   MOSUNNY   82  68  61 W8        30.04F
$$

TNZ012-013-036-069-073-074-302000-
CENTRAL EAST TENNESSEE

CITY           SKY/WX    TMP DP  RH WIND       PRES   REMARKS
KNOXVILLE      PTSUNNY   86  70  58 W8        30.00F HX  90
OAK RIDGE      MOSUNNY   90  67  46 VRB3      30.01F HX  93
GATLINBURG       N/A     90  66  45 W7        30.00F HX  92
MORRISTOWN     MOSUNNY   84  70  61 VRB5      30.02F
$$

TNZ083-085-099-302000-
SOUTHEAST TENNESSEE

CITY           SKY/WX    TMP DP  RH WIND       PRES   REMARKS
CHATTANOOGA    PTSUNNY   91  65  41 SW7       30.01S HX  93
$$

SKY/WX REPORTED AS FAIR MEANS FEW OR NO CLOUDS BELOW
12 THOUSAND FEET.





USA.gov is the U.S. government's official web portal to all federal, state and local government web resources and services.